FW1964 Weather Reports


time (UTC)temp
C
wind
direction
speed
KPH
gust
KPH
rain 1hr
cm
rain 24hr
cm
rain mn
cm
humidity
%
barometer
mb
20260506084555 10 149 0.0 0.0 0.00 0.00 0.00 61 1020.1
20260506083056 11 59 0.0 0.0 0.00 0.00 0.00 62 1020.0
20260506081603 11 61 0.0 0.0 0.00 0.00 0.00 63 1020.1
20260506073041 12 66 0.0 1.6 0.00 0.00 0.00 62 1019.7
20260506071543 13 71 0.0 0.0 0.00 0.00 0.00 62 1019.7
20260506061536 13 71 0.0 0.0 0.00 0.00 0.00 61 1019.4
20260506050131 13 71 0.0 0.0 0.00 0.00 0.00 62 1019.0
20260506044542 14 78 0.0 0.0 0.00 0.00 0.00 62 1018.9
20260506043025 14 175 0.0 0.0 0.00 0.00 0.00 62 1018.9
20260506041522 14 174 0.0 1.6 0.00 0.00 0.00 61 1018.8
20260506040022 14 221 0.0 4.8 0.00 0.00 0.00 61 1018.6
20260506034520 14 172 0.0 0.0 0.00 0.00 0.00 61 1018.5
20260506033026 14 165 0.0 3.2 0.00 0.00 0.00 61 1018.2
20260506031616 14 184 0.0 3.2 0.00 0.00 0.00 60 1018.0
20260506030015 14 216 0.0 4.8 0.00 0.00 0.00 60 1017.8
20260506024519 14 225 0.0 8.0 0.00 0.00 0.00 59 1017.8
20260506023012 15 195 3.2 6.4 0.00 0.00 0.00 58 1017.9
20260506021514 15 204 3.2 12.9 0.00 0.00 0.00 57 1017.8
20260506020016 15 231 1.6 8.0 0.00 0.00 0.00 55 1017.6
20260506014510 15 221 3.2 12.9 0.00 0.00 0.00 54 1017.6
20260506013013 15 209 9.7 16.1 0.00 0.00 0.00 53 1017.4
20260506011516 16 215 3.2 12.9 0.00 0.00 0.00 50 1017.3
20260506010027 16 287 6.4 16.1 0.00 0.00 0.00 49 1017.2
20260506004507 17 214 9.7 14.5 0.00 0.00 0.00 49 1017.2
20260506003006 17 194 9.7 19.3 0.00 0.00 0.00 48 1017.1
20260506001505 17 237 9.7 17.7 0.00 0.00 0.00 49 1017.1
20260506000005 16 226 4.8 12.9 0.00 0.00 0.00 52 1016.9
20260505234504 16 265 8.0 19.3 0.00 0.00 0.00 50 1017.0
20260505233008 17 216 6.4 20.9 0.00 0.00 0.00 51 1016.9
20260505231513 17 236 8.0 17.7 0.00 0.00 0.00 50 1017.0
20260505230002 17 174 4.8 14.5 0.00 0.00 0.00 53 1017.0
20260505224601 17 221 3.2 12.9 0.00 0.00 0.00 52 1017.0
20260505223100 17 226 4.8 14.5 0.00 0.00 0.00 53 1017.2
20260505221600 17 225 4.8 11.3 0.00 0.00 0.00 52 1017.2
20260505220059 17 225 3.2 12.9 0.00 0.00 0.00 52 1017.3
20260505214628 17 211 6.4 17.7 0.00 0.00 0.00 52 1017.3
20260505213106 16 186 4.8 16.1 0.00 0.00 0.00 52 1017.5
20260505211557 17 274 6.4 19.3 0.00 0.00 0.00 51 1017.5
20260505210056 17 250 9.7 16.1 0.00 0.00 0.00 49 1017.5
20260505204555 17 180 3.2 16.1 0.00 0.00 0.00 50 1017.4
20260505203054 17 213 9.7 19.3 0.00 0.00 0.00 48 1017.4
20260505201556 16 227 6.4 16.1 0.00 0.00 0.00 48 1017.5
20260505200050 16 157 3.2 16.1 0.00 0.00 0.00 50 1017.6
20260505194549 16 228 8.0 16.1 0.00 0.00 0.00 50 1017.8
20260505193048 16 166 0.0 12.9 0.00 0.00 0.00 49 1017.7
20260505191600 16 232 4.8 12.9 0.00 0.00 0.00 48 1017.8
20260505190045 15 209 4.8 9.7 0.00 0.00 0.00 50 1017.9
20260505184543 15 150 0.0 4.8 0.00 0.00 0.00 53 1017.9
20260505183102 15 186 0.0 9.7 0.00 0.00 0.00 54 1017.8
20260505181535 14 212 1.6 8.0 0.00 0.00 0.00 55 1017.8
20260505180034 14 198 1.6 8.0 0.00 0.00 0.00 56 1017.6
20260505174533 14 209 1.6 8.0 0.00 0.00 0.00 57 1017.5
20260505173042 14 199 3.2 8.0 0.00 0.00 0.00 57 1017.3
20260505171542 14 202 1.6 8.0 0.00 0.00 0.00 57 1017.4
20260505170030 14 186 3.2 8.0 0.00 0.00 0.00 55 1017.4
20260505164528 14 196 1.6 8.0 0.00 0.00 0.00 54 1017.3
20260505163027 14 194 3.2 6.4 0.00 0.00 0.00 54 1017.1
20260505161524 14 165 1.6 9.7 0.00 0.00 0.00 54 1016.8
20260505153016 12 171 0.0 0.0 0.00 0.00 0.00 55 1016.9
20260505151511 12 194 0.0 0.0 0.00 0.00 0.00 55 1016.8
20260505124502 10 136 0.0 0.0 0.00 0.00 0.00 59 1016.1
20260505123100 10 170 0.0 0.0 0.00 0.00 0.00 58 1016.1
20260505123002 10 170 0.0 0.0 0.00 0.00 0.00 58 1016.1
20260505121559 10 117 0.0 0.0 0.00 0.00 0.00 58 1016.1
20260505120119 10 117 0.0 0.0 0.00 0.00 0.00 57 1016.0
20260505114600 11 117 0.0 0.0 0.00 0.00 0.00 57 1015.9
20260505113057 11 117 0.0 0.0 0.00 0.00 0.00 57 1015.9
20260505111557 11 117 0.0 0.0 0.00 0.00 0.00 57 1016.0
20260505101552 10 175 0.0 0.0 0.00 0.00 0.00 59 1016.1
20260505100047 10 167 0.0 0.0 0.00 0.00 0.00 58 1016.2
20260505094545 10 167 0.0 0.0 0.00 0.00 0.00 58 1016.3
20260505093045 10 167 0.0 0.0 0.00 0.00 0.00 58 1016.3
20260505091546 10 167 0.0 0.0 0.00 0.00 0.00 58 1016.4
20260505090047 10 167 0.0 0.0 0.00 0.00 0.00 58 1016.4